Location: ????? ???????
(25.7275°N, 32.5929°E)
Time: 10:23:59
(UTC+00:00)

Cosmos 1844 Rocket - Pass Details

Date: 02 March 2021
Orbit: 826 x 843 km, 71.0° (Epoch: 15 April)

Event Time Altitude Azimuth Distance (km) Brightness Sun altitude
Rises 17:03:24 0° 359° (N) 3,362 5.9 -16.9°
Reaches altitude 10° 17:06:22 10° 14° (NNE) 2,427 5.0 -17.5°
Enters shadow 17:09:36 21° 48° (NE) 1,758 3.9 -18.3°
